• In Czech Republic
  • List of Countries
  • For 7 days
  • Water Temperature
  • Satellite Maps
  • Weather Map
  • Weather Widgets
  • user-avatar
    Login

    Hourly Weather Exeter

    Today, 20 June, Wednesday

    Time Temperature Precipitation Wind Pressure Humidity
    00:00 +14°C° 0 mm 3 mps 759 mmHg 97%
    01:00 +14°C° 0 mm 4 mps 759 mmHg 97%
    02:00 +14°C° 0 mm 4 mps 758 mmHg 97%
    03:00 +14°C° 0 mm 4 mps 758 mmHg 97%
    04:00 +14°C° 0 mm 4 mps 758 mmHg 97%
    05:00 +15°C° 0 mm 4 mps 758 mmHg 96%
    06:00 +15°C° 0 mm 5 mps 758 mmHg 95%
    07:00 +16°C° 0 mm 5 mps 758 mmHg 93%
    08:00 +17°C° 0 mm 5 mps 758 mmHg 91%
    09:00 +17°C° 0 mm 5 mps 758 mmHg 90%
    10:00 +19°C° 0 mm 5 mps 758 mmHg 89%
    11:00 +19°C° 0 mm 5 mps 758 mmHg 89%
    12:00 +19°C° 0 mm 5 mps 758 mmHg 88%
    13:00 +19°C° 0 mm 5 mps 758 mmHg 87%
    14:00 +19°C° 0 mm 5 mps 758 mmHg 86%
    15:00 +19°C° 0 mm 5 mps 758 mmHg 85%
    16:00 +17°C° 0 mm 5 mps 758 mmHg 84%
    17:00 +17°C° 0 mm 5 mps 758 mmHg 84%
    18:00 +17°C° 0 mm 4 mps 758 mmHg 83%
    19:00 +15°C° 0 mm 4 mps 759 mmHg 86%
    20:00 +14°C° 0 mm 4 mps 759 mmHg 89%
    21:00 +13°C° 0 mm 4 mps 759 mmHg 93%
    22:00 +12°C° 0 mm 5 mps 759 mmHg 90%
    23:00 +10°C° 0 mm 5 mps 760 mmHg 88%

    Tomorrow, 21 June, Thursday

    Time Temperature Precipitation Wind Pressure Humidity
    00:00 +9°C° 0 mm 5 mps 760 mmHg 85%
    01:00 +9°C° 0 mm 5 mps 760 mmHg 86%
    02:00 +9°C° 0 mm 5 mps 760 mmHg 88%
    03:00 +9°C° 0 mm 5 mps 761 mmHg 89%
    04:00 +9°C° 0 mm 5 mps 761 mmHg 87%
    05:00 +9°C° 0 mm 6 mps 761 mmHg 84%
    06:00 +10°C° 0 mm 6 mps 762 mmHg 82%
    07:00 +11°C° 0 mm 6 mps 762 mmHg 77%
    08:00 +11°C° 0 mm 6 mps 763 mmHg 73%
    09:00 +13°C° 0 mm 6 mps 763 mmHg 68%
    10:00 +14°C° 0 mm 6 mps 763 mmHg 66%
    11:00 +15°C° 0 mm 5 mps 763 mmHg 65%
    12:00 +15°C° 0 mm 5 mps 764 mmHg 63%
    13:00 +16°C° 0 mm 5 mps 764 mmHg 63%
    14:00 +16°C° 0 mm 5 mps 764 mmHg 64%
    15:00 +16°C° 0 mm 5 mps 764 mmHg 64%
    16:00 +16°C° 0 mm 5 mps 764 mmHg 67%
    17:00 +15°C° 0 mm 5 mps 764 mmHg 70%
    18:00 +15°C° 0 mm 5 mps 764 mmHg 72%
    19:00 +14°C° 0 mm 5 mps 765 mmHg 75%
    20:00 +12°C° 0 mm 5 mps 765 mmHg 77%
    21:00 +10°C° 0 mm 5 mps 765 mmHg 80%
    22:00 +9°C° 0 mm 5 mps 765 mmHg 81%
    23:00 +9°C° 0 mm 5 mps 765 mmHg 82%

    Day after tomorrow, 22 June, Friday

    Time Temperature Precipitation Wind Pressure Humidity
    00:00 +8°C° 0 mm 4 mps 765 mmHg 83%
    01:00 +7°C° 0 mm 4 mps 765 mmHg 83%
    02:00 +7°C° 0 mm 4 mps 765 mmHg 83%
    03:00 +6°C° 0 mm 4 mps 765 mmHg 83%
    04:00 +7°C° 0 mm 4 mps 765 mmHg 82%
    05:00 +8°C° 0 mm 4 mps 765 mmHg 81%
    06:00 +8°C° 0 mm 4 mps 766 mmHg 80%
    07:00 +11°C° 0 mm 4 mps 766 mmHg 76%
    08:00 +12°C° 0 mm 4 mps 766 mmHg 73%
    09:00 +14°C° 0 mm 4 mps 766 mmHg 69%
    10:00 +16°C° 0 mm 3 mps 766 mmHg 67%
    11:00 +17°C° 0 mm 3 mps 766 mmHg 64%
    12:00 +18°C° 0 mm 3 mps 766 mmHg 61%
    13:00 +18°C° 0 mm 2 mps 766 mmHg 61%
    14:00 +18°C° 0 mm 2 mps 765 mmHg 62%
    15:00 +19°C° 0 mm 2 mps 765 mmHg 62%
    16:00 +19°C° 0 mm 2 mps 765 mmHg 65%
    17:00 +18°C° 0 mm 2 mps 765 mmHg 69%
    18:00 +18°C° 0 mm 2 mps 765 mmHg 72%
    19:00 +16°C° 0 mm 2 mps 765 mmHg 78%
    20:00 +15°C° 0 mm 2 mps 765 mmHg 83%
    21:00 +13°C° 0 mm 2 mps 765 mmHg 88%
    22:00 +13°C° 0 mm 2 mps 765 mmHg 89%
    23:00 +12°C° 0 mm 2 mps 765 mmHg 90%

    23 June, Saturday

    Time Temperature Precipitation Wind Pressure Humidity
    00:00 +12°C° 0 mm 2 mps 765 mmHg 91%
    01:00 +12°C° 0 mm 2 mps 764 mmHg 91%
    02:00 +10°C° 0 mm 2 mps 764 mmHg 91%
    03:00 +10°C° 0 mm 2 mps 764 mmHg 91%
    04:00 +12°C° 0 mm 2 mps 764 mmHg 88%
    05:00 +12°C° 0 mm 2 mps 764 mmHg 86%
    06:00 +13°C° 0 mm 2 mps 764 mmHg 83%
    07:00 +14°C° 0 mm 2 mps 764 mmHg 78%
    08:00 +16°C° 0 mm 1 mps 764 mmHg 73%
    09:00 +19°C° 0 mm 1 mps 764 mmHg 69%
    10:00 +19°C° 0 mm 1 mps 764 mmHg 67%
    11:00 +19°C° 0 mm 2 mps 764 mmHg 66%
    12:00 +20°C° 0 mm 2 mps 764 mmHg 64%
    13:00 +20°C° 0 mm 2 mps 764 mmHg 65%
    14:00 +20°C° 0 mm 2 mps 763 mmHg 67%
    15:00 +20°C° 0 mm 2 mps 763 mmHg 68%
    16:00 +19°C° 0 mm 2 mps 763 mmHg 70%
    17:00 +19°C° 0 mm 2 mps 763 mmHg 72%
    18:00 +19°C° 0 mm 2 mps 762 mmHg 75%
    19:00 +17°C° 0 mm 2 mps 762 mmHg 79%
    20:00 +16°C° 0 mm 2 mps 762 mmHg 83%
    21:00 +14°C° 0 mm 1 mps 762 mmHg 88%
    22:00 +14°C° 0 mm 1 mps 762 mmHg 88%
    23:00 +13°C° 0 mm 1 mps 762 mmHg 88%

    24 June, Sunday

    Time Temperature Precipitation Wind Pressure Humidity
    00:00 +13°C° 0 mm 1 mps 762 mmHg 88%
    01:00 +12°C° 0 mm 1 mps 761 mmHg 88%
    02:00 +12°C° 0 mm 1 mps 761 mmHg 88%
    03:00 +12°C° 0 mm 1 mps 761 mmHg 88%
    04:00 +13°C° 0 mm 1 mps 761 mmHg 87%
    05:00 +14°C° 0 mm 2 mps 761 mmHg 86%
    06:00 +14°C° 0 mm 2 mps 761 mmHg 85%
    07:00 +16°C° 0 mm 2 mps 761 mmHg 81%
    08:00 +17°C° 0 mm 2 mps 761 mmHg 76%
    09:00 +19°C° 0 mm 2 mps 761 mmHg 72%
    10:00 +19°C° 0 mm 2 mps 761 mmHg 69%
    11:00 +20°C° 0 mm 2 mps 761 mmHg 67%
    12:00 +21°C° 0 mm 2 mps 761 mmHg 64%
    13:00 +21°C° 0 mm 2 mps 761 mmHg 64%
    14:00 +21°C° 0 mm 2 mps 761 mmHg 63%
    15:00 +23°C° 0 mm 2 mps 760 mmHg 63%
    16:00 +21°C° 0 mm 2 mps 760 mmHg 65%
    17:00 +21°C° 0 mm 2 mps 760 mmHg 67%
    18:00 +21°C° 0 mm 2 mps 760 mmHg 70%
    19:00 +19°C° 0 mm 2 mps 760 mmHg 74%
    20:00 +17°C° 0 mm 2 mps 760 mmHg 77%
    21:00 +15°C° 0 mm 2 mps 760 mmHg 81%
    22:00 +14°C° 0 mm 2 mps 760 mmHg 81%
    23:00 +14°C° 0 mm 2 mps 760 mmHg 80%

    25 June, Monday

    Time Temperature Precipitation Wind Pressure Humidity
    00:00 +12°C° 0 mm 3 mps 760 mmHg 79%
    01:00 +12°C° 0 mm 3 mps 759 mmHg 81%
    02:00 +12°C° 0 mm 3 mps 759 mmHg 83%
    03:00 +12°C° 0 mm 3 mps 759 mmHg 85%
    04:00 +12°C° 0 mm 3 mps 759 mmHg 84%
    05:00 +13°C° 0 mm 4 mps 759 mmHg 83%
    06:00 +13°C° 0 mm 4 mps 759 mmHg 82%
    07:00 +15°C° 0 mm 4 mps 759 mmHg 78%
    08:00 +16°C° 0 mm 5 mps 759 mmHg 74%
    09:00 +19°C° 0 mm 5 mps 759 mmHg 70%
    10:00 +20°C° 0 mm 5 mps 759 mmHg 69%
    11:00 +20°C° 0 mm 5 mps 759 mmHg 68%
    12:00 +21°C° 0 mm 5 mps 759 mmHg 66%
    13:00 +22°C° 0 mm 5 mps 759 mmHg 66%
    14:00 +22°C° 0 mm 5 mps 759 mmHg 66%
    15:00 +22°C° 0 mm 5 mps 758 mmHg 65%
    16:00 +21°C° 0 mm 5 mps 758 mmHg 68%
    17:00 +21°C° 0 mm 5 mps 758 mmHg 70%
    18:00 +20°C° 0 mm 5 mps 758 mmHg 72%
    19:00 +19°C° 0 mm 5 mps 758 mmHg 76%
    20:00 +17°C° 0 mm 4 mps 758 mmHg 80%
    21:00 +15°C° 0 mm 4 mps 758 mmHg 84%
    22:00 +15°C° 0 mm 4 mps 758 mmHg 86%
    23:00 +14°C° 0 mm 4 mps 758 mmHg 88%
    Show more